Temperature
23 23 23 24 24 25 25 24 24 24 24 23 24 25 25 24 23 23 23 23 22 22 21 20 18 18 17 17 16 15 15 14 13 13 13 13 13 13 12 12 12 12 12 12
23 23 24 25 24 24 24 24 25 25 24 24 24 25 26 25 24 24 24 23 23 22 21 19 18 18 17 17 16 15 15 14 13 13 13 12 12 12 12 12 12 12 12 12
24 24 24 24 23 24 24 24 25 24 24 24 24 25 26 26 24 23 22 23 23 22 21 20 19 18 17 17 16 15 15 14 13 13 12 12 12 12 12 12 12 12 12 12
24 24 23 24 24 24 24 24 24 24 24 25 24 24 26 26 24 24 23 22 22 21 21 20 19 18 17 17 16 15 15 14 13 13 13 13 12 13 12 12 12 12 12 11
24 24 24 24 24 24 24 23 24 24 24 24 25 24 26 25 25 25 24 23 22 21 20 20 19 18 18 17 16 15 15 14 13 13 13 12 13 12 12 12 12 12 12 11
23 23 24 24 24 23 23 23 23 24 24 24 25 24 25 26 26 26 25 23 22 21 20 19 19 18 17 17 16 16 15 14 14 13 13 12 12 12 12 12 12 12 12 11
23 23 23 23 23 23 23 24 24 24 24 24 24 23 25 26 25 25 24 24 22 21 20 19 19 18 18 17 16 16 15 14 14 13 13 13 12 12 12 12 12 12 12 12
24 24 24 24 25 24 24 25 24 23 24 25 24 24 26 26 24 23 22 22 22 21 20 19 19 19 18 17 17 16 15 15 14 14 13 13 12 12 12 12 12 12 12 12
25 24 24 24 24 25 24 25 25 25 24 23 25 25 26 25 24 24 23 22 22 21 20 19 19 19 18 17 17 16 15 15 14 14 13 13 13 12 12 12 12 12 12 11
26 24 24 23 24 23 25 25 24 24 23 23 24 24 25 26 26 25 24 23 22 21 20 19 19 19 18 18 17 16 16 15 15 14 14 13 13 13 12 12 12 12 12 12
25 25 24 24 24 25 23 24 24 24 24 23 23 25 26 26 25 25 25 24 23 21 20 20 19 19 18 17 17 16 16 15 15 14 14 13 13 13 13 12 12 12 12 12
25 25 25 25 24 23 24 25 24 24 24 23 23 24 27 25 25 24 24 24 22 21 21 20 19 19 18 18 17 16 16 15 15 15 14 14 14 13 13 13 13 12 12 12
24 25 24 24 24 23 23 24 24 24 24 24 23 24 26 25 25 24 23 23 22 21 20 20 19 19 18 18 17 17 16 16 15 15 14 14 14 14 13 13 13 13 13 12
23 25 25 24 24 25 24 23 23 23 23 24 24 25 26 26 26 25 24 23 22 21 21 20 19 19 18 18 17 17 16 16 15 15 15 14 14 14 14 13 13 13 13 13
24 25 25 25 25 24 24 24 23 23 24 24 25 25 26 26 26 26 24 23 22 21 21 20 20 19 19 18 18 17 17 16 16 15 15 15 14 14 14 14 14 14 14 13
24 24 24 24 24 24 23 24 24 23 23 24 24 24 26 26 25 25 24 23 22 22 21 21 20 20 19 19 18 18 17 16 16 16 15 15 15 15 15 14 14 14 14 14
24 24 23 24 24 23 23 25 24 24 24 24 24 25 26 26 25 24 24 23 23 22 22 21 21 20 20 19 19 18 17 17 16 16 15 15 15 15 15 15 15 15 14 14
23 23 23 23 23 22 25 25 24 24 24 25 24 24 25 25 24 23 23 23 23 22 22 21 21 20 20 20 19 18 18 17 16 16 16 16 16 16 15 15 15 15 14 14
21 22 22 22 22 23 24 25 23 23 24 25 24 24 24 23 23 24 23 22 22 22 22 21 21 21 20 20 19 18 18 17 17 16 16 16 16 16 16 15 15 15 15 15
19 21 22 22 21 22 24 24 23 23 23 24 24 23 23 23 24 26 24 22 22 22 22 21 21 21 20 20 19 18 18 17 17 17 16 16 16 16 16 16 15 15 15 15
20 20 20 21 21 23 24 22 22 22 23 22 22 22 22 22 23 23 22 21 21 22 22 22 21 21 20 19 19 18 18 18 17 17 16 16 16 16 16 16 15 15 14 14
22 21 21 21 21 22 22 21 22 23 22 21 21 21 21 21 21 21 21 21 21 21 22 22 21 21 20 20 19 18 18 18 17 17 17 17 16 16 16 15 15 14 14 14
21 21 21 22 22 22 20 20 20 19 20 20 20 20 19 20 20 20 20 20 20 21 21 21 21 20 20 20 19 18 18 18 17 17 17 17 16 16 15 15 14 14 14 13
20 19 19 20 21 21 19 19 19 18 18 18 18 18 19 19 19 19 19 20 20 20 21 21 21 20 20 20 19 18 18 18 17 17 17 16 15 15 15 15 14 13 13 13
18 18 18 19 20 20 19 18 18 17 17 17 17 18 18 18 18 19 19 19 19 20 20 20 20 20 20 20 19 19 18 18 17 16 16 16 15 15 14 14 14 13 13 13
17 17 17 18 18 18 18 17 16 16 16 16 16 16 17 17 17 18 18 18 19 19 20 20 20 20 19 19 19 19 18 18 17 16 16 15 15 15 14 14 14 13 13 12
Wind_Speed
13 11 13 14 12 5 4 5 4 2 2 6 10 11 10 9 11 12 13 13 13 12 10 9 9 8 8 7 5 3 2 0 1 2 3 3 3 3 3 4 5 5 6 6
12 13 11 8 7 6 6 6 5 2 2 5 8 12 12 10 13 13 13 14 14 12 11 10 10 10 9 8 6 4 2 1 1 1 3 3 3 3 3 3 3 5 5 6
13 8 9 9 9 9 8 8 6 5 3 5 7 10 8 7 10 11 12 13 13 13 13 12 12 11 10 8 7 4 3 2 1 0 1 2 2 2 2 3 3 4 5 5
7 6 10 11 10 9 8 4 6 5 6 4 4 8 6 5 8 11 12 13 13 13 13 12 12 12 11 9 7 6 4 3 2 2 2 3 3 3 3 4 3 4 3 4
6 8 10 10 8 8 2 1 3 5 7 9 7 8 6 3 6 8 10 12 13 13 13 13 13 12 11 9 8 6 5 4 3 2 1 3 3 3 3 3 3 4 3 4
4 4 5 4 2 4 5 4 3 4 6 8 5 6 6 3 3 2 5 9 12 12 13 12 11 11 10 9 8 7 6 5 4 4 4 3 3 3 4 3 4 3 3 3
6 6 4 4 6 6 7 6 4 5 5 4 0 6 6 3 3 4 4 4 9 11 13 13 13 13 12 11 10 9 8 6 6 5 5 4 4 4 4 4 3 4 3 3
7 7 7 6 6 6 8 8 5 5 5 6 4 6 5 2 3 5 5 5 7 11 12 13 13 13 12 12 11 10 9 7 6 6 5 5 4 4 3 3 4 4 4 4
5 5 5 3 2 4 5 7 4 7 7 8 6 5 7 4 5 6 5 6 8 10 12 13 13 12 12 12 12 11 10 8 7 6 5 5 4 4 4 4 4 4 3 3
2 4 5 5 5 1 3 3 4 5 6 8 7 7 5 4 3 5 7 7 8 9 11 12 12 12 12 11 11 10 10 8 7 7 6 4 5 4 4 4 4 4 4 3
3 4 6 7 7 7 5 5 6 6 6 7 9 6 2 5 5 5 6 7 8 9 11 12 12 12 11 11 11 10 10 9 8 7 7 6 5 4 4 4 4 4 4 3
2 4 4 5 3 2 6 8 9 10 9 8 10 9 2 5 6 6 7 7 8 9 10 11 11 12 12 12 11 11 10 9 8 7 7 6 5 5 5 4 4 4 3 3
3 4 5 5 5 5 6 7 9 9 10 11 13 10 2 4 6 7 8 8 8 9 10 10 11 12 12 12 12 11 11 10 9 8 7 7 7 6 5 5 4 4 4 4
3 6 8 9 6 4 6 8 9 11 11 14 16 18 15 13 13 11 10 9 10 11 11 12 12 13 13 13 13 12 11 10 9 9 8 8 7 6 6 5 4 4 4 4
4 9 10 11 9 8 11 12 12 15 17 19 20 20 19 17 15 13 11 10 11 12 13 13 13 13 14 14 13 13 12 11 10 10 9 9 8 7 6 5 5 5 5 5
4 8 10 13 11 10 14 16 17 18 19 20 22 23 21 18 15 14 13 12 13 14 15 15 15 14 15 15 14 14 13 12 11 11 10 8 8 7 7 6 6 6 6 6
5 8 11 14 11 10 15 14 15 14 15 16 19 20 17 16 15 14 14 13 15 15 15 15 15 15 15 15 15 14 14 13 12 12 10 9 9 8 8 7 7 7 7 7
10 11 10 13 13 16 10 4 7 12 15 15 17 18 18 17 15 13 13 13 14 14 14 14 14 14 14 14 14 14 13 13 13 12 11 10 9 8 8 7 7 7 7 7
11 10 9 10 14 15 12 8 6 8 11 8 10 13 13 12 10 10 9 11 13 12 12 12 13 14 14 14 14 14 14 14 13 12 11 11 10 9 8 8 7 7 6 7
6 9 10 10 12 12 8 3 2 6 7 6 9 10 10 7 6 6 5 6 9 9 9 10 11 13 14 14 14 15 14 14 13 12 11 10 9 8 8 7 6 5 5 6
5 7 10 14 14 11 7 1 4 6 5 9 10 11 10 7 9 11 10 7 6 7 8 10 11 12 13 14 15 15 15 14 13 11 10 9 8 8 7 5 5 5 5 5
10 9 10 10 12 9 1 2 3 5 8 10 12 13 13 13 13 11 9 6 4 6 8 10 11 11 12 14 15 15 14 12 11 10 9 9 8 6 5 5 4 4 4 4
7 8 7 8 7 3 3 4 6 8 10 12 14 15 15 15 14 12 10 7 5 6 8 10 11 11 11 13 14 15 13 12 12 11 10 8 8 6 5 5 4 3 3 3
8 5 7 9 10 9 9 8 7 9 13 15 15 16 15 15 15 13 10 8 6 7 8 9 11 12 12 13 13 13 12 13 13 12 10 9 8 7 6 4 3 2 1 1
11 9 12 16 16 15 10 9 12 15 16 17 17 16 15 15 15 14 11 9 8 7 8 10 12 13 14 13 13 12 12 13 13 12 10 9 8 7 6 5 2 2 3 2
17 17 18 19 17 16 18 18 18 18 17 17 17 17 16 14 15 14 13 10 9 8 9 11 12 13 14 14 14 13 13 14 14 12 11 8 8 7 7 7 6 8 6 8
Wind_Direction
171 183 192 197 207 232 225 235 248 250 198 233 252 263 255 226 221 225 221 217 217 217 209 197 194 194 196 196 199 186 215 209 310 332 328 335 342 335 341 349 355 347 346 346
171 196 195 194 201 218 231 248 256 239 196 248 274 275 267 241 230 230 227 221 217 213 205 195 195 195 200 196 196 196 194 204 293 349 336 334 332 325 339 331 338 346 348 347
181 177 176 190 201 217 234 252 273 284 261 237 284 277 253 232 229 229 229 228 222 213 210 199 196 196 196 196 193 193 191 190 200 262 316 308 301 285 308 340 350 349 345 345
184 163 181 199 211 224 240 263 266 259 262 273 277 296 281 225 229 226 223 219 218 210 208 200 195 196 196 192 187 190 186 194 190 219 288 320 320 335 346 337 343 337 345 346
177 181 192 207 216 222 248 6 239 246 263 278 258 277 285 210 243 224 215 214 212 206 202 197 195 194 192 184 183 188 187 194 200 227 252 282 305 330 331 326 333 331 357 351
135 172 210 211 169 189 155 165 175 216 253 269 280 271 285 245 248 220 202 207 206 201 198 195 190 188 186 181 183 188 194 198 204 223 238 262 297 306 317 325 337 333 347 347
161 166 163 166 159 167 205 233 240 240 244 273 165 263 269 291 270 267 256 217 200 194 192 190 187 187 186 187 189 192 198 204 208 221 236 248 264 283 294 313 327 325 337 346
181 175 178 192 216 204 210 238 264 285 289 299 247 257 276 303 265 266 257 238 201 192 193 192 191 190 189 190 192 197 203 209 211 223 234 243 249 265 286 296 305 311 324 337
193 156 143 181 220 223 200 224 276 286 290 287 275 271 285 250 249 238 226 212 201 194 193 194 192 192 191 192 194 198 203 210 212 220 228 238 248 259 273 279 286 298 307 319
225 169 154 153 162 80 284 198 209 256 286 287 284 280 282 298 286 233 220 214 204 196 195 195 193 194 194 193 194 197 205 211 211 216 222 230 245 250 263 275 284 291 295 304
243 205 167 185 215 216 182 205 236 256 268 283 292 293 319 301 305 272 241 222 209 200 198 196 194 194 192 191 192 196 202 208 209 214 217 222 231 242 252 258 271 275 282 282
234 256 217 199 158 307 243 244 237 257 264 259 278 284 286 265 280 273 257 230 215 207 201 198 196 192 191 194 195 198 202 204 206 210 214 221 226 231 241 245 254 262 272 279
191 244 243 208 195 196 223 230 238 257 270 264 263 271 217 247 267 260 249 235 215 207 203 199 195 195 195 196 198 199 201 203 201 202 210 216 220 226 235 243 249 259 265 268
241 252 262 272 290 270 239 227 224 235 258 265 261 271 277 274 272 268 252 239 223 212 207 203 199 199 199 198 199 200 199 199 198 198 208 216 220 221 229 234 244 252 255 260
246 266 265 272 278 266 264 261 242 241 259 270 276 278 279 280 278 274 262 245 227 217 213 208 205 203 199 199 200 199 198 197 197 200 208 214 216 216 223 230 238 245 248 257
253 267 271 268 266 262 265 265 260 255 260 267 273 275 277 280 276 267 256 241 230 223 217 212 207 203 201 200 199 197 196 196 197 204 209 209 214 214 222 231 236 242 248 255
252 264 271 274 275 273 268 265 262 258 254 260 270 279 287 281 272 264 258 244 234 228 219 211 207 203 202 201 198 196 197 193 197 204 206 205 210 214 222 228 235 240 245 249
254 256 264 274 275 266 277 291 267 266 269 271 272 281 288 286 283 273 260 248 240 230 220 212 207 201 200 198 194 194 191 192 198 203 205 205 209 214 220 227 237 244 252 253
235 242 252 262 265 269 276 273 248 256 278 308 297 297 302 303 288 266 250 242 240 233 221 211 205 197 195 192 189 188 189 193 198 202 205 204 208 214 220 227 237 245 252 256
209 225 241 247 258 266 278 300 225 255 264 353 338 329 326 317 286 299 316 263 239 227 212 199 192 190 189 186 184 189 192 194 198 200 204 205 206 211 220 230 241 244 247 257
203 212 231 246 256 264 292 319 185 242 312 358 349 341 334 311 297 315 314 292 248 214 197 186 182 184 185 179 181 192 195 199 197 194 197 198 200 207 216 225 232 241 250 261
256 249 242 246 251 261 57 146 236 321 345 341 340 339 330 316 311 313 307 293 253 206 189 183 181 181 179 179 184 194 197 193 185 183 186 191 194 197 199 206 223 239 251 259
251 265 272 254 265 347 10 319 328 336 330 334 331 329 325 317 313 312 305 291 256 219 194 187 184 179 178 183 189 195 189 181 177 178 182 185 184 183 189 195 203 218 236 262
266 277 271 270 272 293 303 308 316 324 322 322 322 321 318 313 310 306 299 286 260 228 205 192 186 185 185 184 190 194 181 176 177 180 181 181 182 179 176 175 187 199 227 256
276 278 276 276 283 291 284 309 320 321 319 317 318 316 314 309 304 300 293 281 263 236 213 201 199 196 190 184 185 184 177 177 181 182 179 180 177 170 163 148 115 130 79 45
259 263 267 273 285 291 293 304 313 314 314 316 315 313 312 308 302 298 290 281 265 243 221 210 206 201 195 187 184 180 178 181 184 183 180 175 168 163 159 147 123 71 84 81
Height
1498 1500 1502 1501 1500 1501 1502 1505 1507 1506 1506 1508 1506 1503 1501 1504 1507 1508 1510 1512 1514 1516 1519 1521 1522 1524 1525 1526 1526 1526 1526 1525 1524 1524 1523 1522 1521 1520 1518 1517 1514 1513 1511 1510
1499 1499 1497 1498 1502 1503 1504 1506 1505 1504 1506 1506 1503 1500 1496 1498 1501 1503 1504 1507 1510 1513 1516 1518 1519 1521 1523 1524 1524 1525 1525 1524 1523 1522 1522 1521 1520 1519 1517 1516 1514 1513 1511 1509
1494 1495 1498 1501 1504 1505 1504 1506 1504 1506 1505 1504 1505 1498 1492 1493 1497 1500 1502 1503 1505 1509 1512 1515 1517 1519 1520 1522 1523 1523 1523 1523 1522 1521 1521 1520 1519 1518 1518 1516 1514 1512 1510 1509
1494 1497 1499 1501 1501 1501 1505 1502 1505 1506 1507 1503 1506 1506 1491 1489 1493 1495 1497 1499 1502 1505 1508 1511 1514 1516 1518 1519 1520 1522 1522 1522 1521 1521 1521 1520 1520 1519 1517 1516 1514 1512 1510 1509
1495 1497 1498 1499 1499 1500 1502 1505 1504 1504 1504 1504 1501 1504 1491 1488 1489 1488 1491 1494 1498 1501 1505 1508 1510 1513 1515 1517 1518 1519 1520 1520 1520 1520 1519 1519 1519 1518 1517 1515 1514 1512 1510 1508
1496 1498 1497 1497 1500 1502 1505 1505 1505 1503 1502 1509 1500 1504 1496 1484 1484 1484 1487 1491 1494 1498 1501 1505 1508 1510 1512 1514 1515 1517 1518 1518 1518 1518 1518 1518 1518 1517 1516 1515 1514 1512 1511 1509
1497 1497 1499 1500 1502 1504 1504 1505 1509 1510 1509 1505 1500 1503 1493 1481 1483 1485 1487 1489 1492 1495 1498 1501 1504 1506 1509 1511 1513 1515 1516 1517 1517 1517 1517 1517 1516 1516 1516 1515 1513 1512 1511 1509
1497 1499 1496 1497 1496 1498 1499 1500 1509 1516 1512 1502 1499 1499 1484 1481 1484 1486 1487 1488 1490 1492 1495 1498 1501 1503 1506 1508 1510 1512 1514 1515 1515 1515 1516 1516 1515 1515 1515 1513 1512 1512 1510 1509
1491 1496 1495 1497 1497 1495 1498 1498 1495 1501 1503 1508 1495 1489 1481 1479 1481 1483 1485 1486 1487 1489 1492 1495 1498 1501 1503 1505 1507 1509 1511 1513 1513 1514 1514 1514 1514 1514 1513 1512 1511 1510 1509 1507
1485 1493 1495 1498 1498 1500 1496 1494 1499 1503 1511 1510 1500 1493 1486 1477 1477 1479 1481 1483 1485 1487 1490 1492 1495 1497 1500 1503 1505 1507 1509 1510 1511 1512 1512 1512 1512 1512 1511 1511 1510 1509 1508 1506
1486 1489 1496 1496 1496 1493 1499 1500 1497 1497 1501 1509 1507 1494 1476 1477 1477 1477 1478 1481 1483 1485 1487 1489 1492 1494 1497 1500 1502 1504 1506 1507 1509 1509 1510 1510 1511 1510 1510 1509 1508 1507 1507 1505
1487 1486 1490 1491 1492 1493 1492 1491 1494 1501 1499 1499 1502 1492 1472 1475 1476 1477 1477 1479 1481 1483 1485 1487 1489 1491 1494 1496 1499 1501 1503 1505 1506 1507 1508 1508 1509 1508 1508 1508 1507 1506 1506 1505
1488 1488 1493 1495 1497 1495 1493 1492 1492 1491 1493 1494 1499 1489 1471 1474 1474 1475 1476 1476 1478 1480 1481 1483 1485 1487 1490 1493 1495 1498 1500 1502 1503 1504 1505 1506 1507 1507 1507 1507 1506 1505 1505 1504
1489 1485 1490 1496 1489 1485 1489 1491 1492 1492 1492 1489 1485 1479 1469 1469 1469 1470 1472 1473 1474 1476 1478 1479 1481 1483 1486 1489 1492 1494 1496 1498 1500 1501 1503 1504 1505 1505 1505 1505 1504 1504 1504 1503
1488 1484 1482 1482 1482 1484 1485 1484 1486 1488 1482 1482 1475 1471 1466 1463 1464 1465 1467 1468 1470 1471 1473 1474 1476 1479 1482 1485 1487 1490 1493 1495 1497 1498 1500 1501 1503 1503 1503 1503 1503 1502 1502 1501
1487 1485 1482 1483 1480 1482 1483 1479 1478 1479 1477 1475 1471 1467 1460 1459 1460 1461 1461 1463 1464 1465 1467 1469 1472 1474 1477 1480 1483 1486 1488 1491 1493 1495 1497 1498 1500 1500 1501 1501 1501 1501 1500 1500
1484 1484 1486 1483 1477 1482 1480 1470 1469 1469 1467 1468 1467 1459 1454 1454 1454 1455 1456 1456 1457 1459 1461 1463 1466 1469 1472 1475 1478 1481 1484 1487 1490 1492 1494 1495 1496 1497 1498 1498 1499 1498 1498 1498
1483 1483 1482 1482 1481 1489 1468 1461 1463 1464 1461 1459 1458 1455 1453 1452 1450 1450 1450 1450 1451 1453 1455 1457 1461 1464 1467 1471 1474 1477 1480 1483 1486 1488 1490 1492 1493 1494 1495 1496 1496 1496 1496 1495
1482 1481 1482 1481 1482 1474 1463 1459 1462 1463 1458 1455 1454 1452 1451 1449 1447 1444 1444 1444 1445 1447 1449 1452 1455 1459 1462 1466 1469 1473 1476 1479 1482 1484 1487 1488 1490 1491 1492 1493 1493 1493 1492 1492
1482 1480 1479 1479 1482 1478 1462 1457 1459 1461 1458 1455 1453 1451 1449 1448 1444 1439 1440 1440 1441 1442 1444 1447 1450 1454 1458 1461 1465 1468 1472 1475 1477 1480 1483 1485 1487 1488 1489 1489 1490 1489 1489 1488
1477 1479 1478 1475 1474 1464 1455 1457 1459 1464 1458 1455 1454 1452 1450 1448 1445 1442 1439 1438 1438 1438 1440 1443 1446 1450 1453 1457 1460 1464 1468 1471 1474 1476 1479 1481 1483 1484 1485 1486 1486 1486 1485 1484
1469 1470 1470 1469 1472 1466 1456 1458 1458 1456 1456 1455 1453 1452 1449 1446 1443 1440 1438 1436 1435 1436 1437 1440 1443 1446 1449 1452 1456 1460 1463 1467 1470 1472 1475 1477 1479 1480 1481 1482 1482 1482 1481 1481
1468 1466 1463 1462 1460 1458 1459 1459 1459 1459 1457 1455 1453 1451 1448 1444 1441 1438 1436 1434 1434 1434 1435 1437 1440 1442 1445 1448 1452 1456 1459 1462 1465 1468 1471 1473 1475 1476 1477 1478 1478 1478 1478 1478
1467 1468 1466 1462 1455 1457 1459 1459 1458 1458 1456 1454 1451 1449 1446 1442 1439 1436 1434 1432 1431 1431 1432 1434 1436 1439 1441 1444 1448 1451 1455 1458 1461 1464 1466 1469 1471 1472 1473 1474 1474 1475 1474 1474
1470 1468 1465 1461 1457 1456 1455 1456 1456 1455 1453 1450 1448 1446 1443 1439 1436 1434 1431 1430 1429 1428 1429 1430 1432 1434 1437 1440 1443 1447 1450 1453 1457 1460 1462 1464 1466 1468 1469 1470 1470 1470 1470 1470
1468 1466 1463 1458 1457 1457 1454 1454 1453 1451 1449 1446 1443 1440 1438 1436 1432 1429 1427 1426 1425 1424 1424 1425 1427 1429 1432 1435 1438 1441 1445 1448 1452 1455 1458 1460 1462 1463 1465 1466 1466 1466 1467 1467